This demonstration page uses our WeatherBlox Daily Observations layout. Learn more.

Left ArrowRight Arrow

34.02893, -84.19858

Hourly Observations for August 5, 2015

Temp ( °F °C ) Dew Point ( °F °C ) Humidity (%) Winds ( mph kmh ) Pressure ( in mb ) Visibility ( mi km ) Precip ( " mm )
12:53 am 00:53 Clear 77 25 66 18.9 69 69 N 3 6 29.97 1015 10 16 0.00 0.00
1:53 am 01:53 Clear 76 24.4 66 18.9 72 72 SE 3 6 29.97 1015 10 16 0.00 0.00
2:53 am 02:53 Clear 74 23.3 66 18.9 76 76 Calm 29.96 1015 10 16 0.00 0.00
3:53 am 03:53 Clear 78 25.6 67 19.4 69 69 SW 5 7 29.96 1014 10 16 0.00 0.00
4:53 am 04:53 Clear 75 23.9 67 19.4 76 76 Calm 29.96 1015 10 16 0.00 0.00
5:53 am 05:53 Clear 73 22.8 67 19.4 81 81 Calm 29.97 1015 10 16 0.00 0.00
6:53 am 06:53 Sunny 72 22.2 67 19.4 84 84 Calm 29.97 1015 10 16 0.00 0.00
7:53 am 07:53 Sunny 75 23.9 69 20.6 82 82 WNW 3 6 29.99 1016 9 14 0.00 0.00
8:53 am 08:53 Sunny 78 25.6 69 20.6 74 74 W 3 6 30.00 1016 10 16 0.00 0.00
9:53 am 09:53 Sunny 84 28.9 67 19.4 57 57 WSW 6 9 30.00 1016 10 16 0.00 0.00
10:53 am 10:53 Sunny 87 30.6 68 20 53 53 Calm 29.99 1016 10 16 0.00 0.00
11:53 am 11:53 Sunny 90 32.2 67 19.4 47 47 Calm 29.99 1016 10 16 0.00 0.00
12:53 pm 12:53 Sunny 93 33.9 64 17.8 38 38 VRB 5 7 29.98 1015 10 16 0.00 0.00
1:53 pm 13:53 Partly Cloudy 96 35.6 62 16.7 32 32 SW 7 11 29.96 1015 10 16 0.00 0.00
2:53 pm 14:53 Mostly Sunny 98 36.7 64 17.8 33 33 S 8 13 29.95 1014 10 16 0.00 0.00
3:53 pm 15:53 Sunny 98 36.7 62 16.7 31 31 W 10 17 29.92 1013 10 16 0.00 0.00
4:53 pm 16:53 Sunny 97 36.1 61 16.1 30 30 W 12 19 29.89 1012 10 16 0.00 0.00
5:53 pm 17:53 Mostly Cloudy 96 35.6 67 19.4 39 39 S 12 19 29.90 1012 10 16 0.00 0.00
6:53 pm 18:53 Sunny 90 32.2 67 19.4 47 47 S 9 15 29.92 1013 10 16 0.00 0.00
7:53 pm 19:53 Sunny 87 30.6 68 20 53 53 S 9 15 29.93 1013 10 16 0.00 0.00
8:53 pm 20:53 Clear 85 29.4 68 20 57 57 S 5 7 29.93 1014 10 16 0.00 0.00
9:53 pm 21:53 Mostly Cloudy 82 27.8 69 20.6 65 65 N 9 15 29.96 1015 10 16 0.00 0.00
10:53 pm 22:53 Clear 80 26.7 70 21.1 71 71 Calm 29.95 1014 10 16 0.00 0.00
11:53 pm 23:53 Mostly Cloudy 81 27.2 70 21.1 69 69 Calm 29.95 1014 10 16 0.00 0.00

Powered by AerisWeather